Погода в Средних Ачалуках

Россия / Республика Ингушетия     43°22′09″N   44°43′57″E
темп.,
°C
ветер,
м/с
пор.,
м/с
влажн.,
%
обл.,
%
осадки,
мм/ч
давл.,
гПа
погр.,
м
16 апреля, пт
пт1600:00+9юв116516 0.0 101810
03:00+8ю11675 0.0 101910
06:00+8ю11725 0.0 102010
09:00+14всв34521 0.0 1019808
12:00+17в55461 0.0 10181428
15:00+18всв55435 0.0 10171521
18:00+15в585714 0.0 1017248
21:00+12вюв38685 0.0 1018145
17 апреля, сб
сб1700:00+10ю226841 0.0 101912
03:00+10ююв116657 0.0 101810
06:00+10юз116737 0.0 101710
09:00+15з445990 0.0 1019646
12:00+16сз5561100 0.0 10191289
15:00+14сз6573100 0.1 1020887
18:00+11зсз3588100 0.1 1022442
21:00+9з2291100 0.3 1023325
18 апреля, вс
вс1800:00+9ю1191100 0.0 1022212
03:00+9св2393100 0.0 1021290
06:00+9всв2597100 0.0 1020584
09:00+10в369096 0.0 1019455
12:00+16в446842 0.0 1017871
15:00+18в555978 0.1 10151041
18:00+14сз1177100 0.9 101714
21:00+13вюв3783100 1.6 1018225
19 апреля, пн
пн1900:00+11ююв2189100 0.0 101712
03:00+11юв1187100 0.0 101610
06:00+12вюв1183100 0.0 101611
09:00+18св34635 0.0 1015428
12:00+21в67489 0.0 1014914
15:00+21в674699 0.0 1013982
18:00+17в6105989 0.0 1013373
21:00+13в47696 0.0 1012113
20 апреля, вт
вт2000:00+13в2270100 0.0 101016
03:00+12вюв2273100 0.0 100811
06:00+14юв1165100 0.0 100711
09:00+20в2356100 0.0 1005134
12:00+24св2245100 0.0 1003346
15:00+24ссз554962 0.0 1002775
18:00+18зсз61068100 0.1 1006453
21:00+11зсз81383100 0.2 1014911